Simultaneous Nadir Overpasses (SNOs) Predictions

Prediction of SNOs between GOES-14 and AQUA Satellite Orbit:

Table of predicted SNOs for the next 14.0 days since TLE Epoch: 10/26/2024
Index Date Time (GOES-14) GOES-14 Lat,Lon AQUA Lat,Lon Distance(km) Time Diff (sec)
1 10/26/2024 09:19:28 -0.06,-108.61 -0.78,-105.16 392.75 80
2 10/26/2024 21:42:01 0.05,-108.54 -0.27,-109.96 161.51 80
3 10/28/2024 21:23:57 0.06,-108.55 0.73,-105.55 342.29 80
4 10/29/2024 09:43:40 -0.05,-108.62 0.32,-110.31 192.16 80
5 10/31/2024 09:22:54 -0.05,-108.63 -0.67,-105.89 312.29 80
6 10/31/2024 21:45:25 0.04,-108.56 -0.43,-110.68 241.87 80
7 11/02/2024 21:24:37 0.04,-108.56 0.56,-106.25 263.39 80
8 11/03/2024 09:46:58 -0.03,-108.64 0.50,-111.01 270.39 80
9 11/05/2024 09:26:09 -0.03,-108.63 -0.49,-106.57 234.84 80
10 11/05/2024 21:48:38 0.02,-108.55 -0.60,-111.36 319.40 80
11 11/07/2024 21:27:46 0.02,-108.55 0.39,-106.91 186.50 80
12 11/08/2024 09:50:08 -0.01,-108.62 0.62,-111.68 346.72 80
